User: anonymous   Login
Location: Bruch
(44.2051°N, 0.4120°E)
Time: 23:02:48
(UTC+00:00)
Language:

FALCON 9 DEB - Orbit

View from above orbital plane
View from above orbital plane
View from above satellite
View from above satellite

Ground track
Ground track

The orbit data is extracted from the following two-line orbital elements,

1 46084U 20055BK  21059.49021348  .00011709  00000-0  14094-3 0  9991
2 46084  53.0155  12.1777 0011118 245.8285 114.1565 15.61288803 36626
Epoch (UTC): 28 February 2021 11:45:54
Eccentricity: 0.0011118
inclination: 53.0155°
perigee height: 376 km
apogee height: 391 km
right ascension of ascending node: 12.1777°
argument of perigee: 245.8285°
revolutions per day: 15.61288803
mean anomaly at epoch: 114.1565°
orbit number at epoch: 3662

The dashed part of the orbit path shows where the satellite is in the earth's shadow,  

DLR